Preview of NWS' New Version of Forecast
This preview is not operational and should not be used for support decisions.
Latest weather observations around

San Jose, San Jose International Airport (KSJC)

Using International System of Units (Switch to English Units)
Date/ Time (PDT) Wind (kph) Vis. (km) Weather Sky Cond. Temp (°C) Rel. Humidity Wind Chill (°C) Heat Index (°C) Pressure Precip. (cm)
Air Dwpt 6 hour Altimeter (hPa) Sea level (hPa) 1 hr 3 hr 6 hr
Max Min
Aug 18 03:53   16.09 Clear CLR 16 15     93%     1009.8 1009.8      
Aug 18 02:53   16.09 Clear CLR 16 15     93%     1009.8 1009.8      
Aug 18 01:53   16.09 Clear CLR 16 15     93%     1009.8 1009.7      
Aug 18 00:53   16.09 Clear CLR 17 15     90%     1010.2 1009.9      
Aug 17 23:53 SE 18 16.09 Mostly Clear FEW012 16 15     93%     1009.8 1009.8      
Aug 17 22:53 SE 15 16.09 Clear CLR 17 16     93%     1009.8 1009.9      
Aug 17 21:53 SE 15 16.09 Clear CLR 18 16     87%     1009.8 1009.7      
Aug 17 20:53 ESE 15 16.09 Mostly Clear FEW080 19 14     73%     1009.5 1009.2      
Aug 17 19:53 NNW 15 16.09 Mostly Clear FEW015 21 13     63%     1008.8 1008.7      
Aug 17 18:53 N 18 16.09 Mostly Clear FEW015 FEW080 23 14     57%   23 1008.5 1008.4      
Aug 17 17:53   16.09 Mostly Clear FEW015 FEW080 24 14     52%   24 1008.8 1008.6      
Aug 17 16:53   16.09 Mostly Clear FEW015 FEW080 26 15     50%   26 1008.8 1008.6      
Aug 17 15:53 S 17 16.09 Mostly Clear FEW015 FEW080 28 13     40%   28 1008.8 1008.6      
Aug 17 14:53 SSW 18 16.09 Mostly Clear FEW015 28 13     40%   28 1009.2 1009.1      
Aug 17 13:53 S 18 16.09 Mostly Clear FEW015 27 13     44%   27 1009.8 1009.6      
Aug 17 12:53 SSE 15 16.09 Mostly Clear FEW010 26 13     45%   26 1010.2 1010.2      
Aug 17 11:53 SSE 13 16.09 Mostly Clear FEW010 24 13     50%   24 1010.8 1010.8      
Aug 17 10:53 SSE 18 16.09 Mostly Clear FEW009 23 13     55%   23 1011.2 1011      
Aug 17 09:53 SE 18 16.09 Mostly Clear FEW009 20 14     70%     1010.8 1010.8      
Aug 17 08:53   16.09 Mostly Clear FEW009 18 12     65%     1010.8 1010.6      
Aug 17 07:53 SE 18 16.09 Mostly Clear FEW009 17 16     93%     1010.5 1010.4      
Aug 17 06:53   16.09 Mostly Clear FEW009 16 11     72%     1010.2 1010.1      
Aug 17 05:53 SSE 18 16.09 Mostly Clear FEW013 16 11     72%     1009.5 1009.5      
Aug 17 04:53   16.09 Clear CLR 16 16     100%     1009.2 1009.1      
Aug 17 03:53   16.09 Clear CLR 16 16     97%     1009.2 1008.9      
Aug 17 02:53   16.09 Clear CLR 17 16     93%     1009.2 1009      
Aug 17 01:53   16.09 Clear CLR 17 16     93%     1009.2 1008.9      
Aug 17 00:53   16.09 Clear CLR 18 16     87%     1009.5 1009.3      
Aug 16 23:53 SSE 18 16.09 Clear CLR 18 16     84%     1009.8 1009.7      
Aug 16 22:53 SE 15 16.09 Clear CLR 19 16     81%     1009.8 1009.6      
Aug 16 21:53 SE 8 16.09 Clear CLR 21 15     68%     1009.5 1009.5      
Aug 16 20:53 NW 5 16.09 Clear CLR 21 18     84%     1009.5 1009.3      
Aug 16 19:53 NW 22 16.09 Clear CLR 22 19     87%   22 1009.2 1009.2      
Aug 16 18:53 NW 22 16.09 Clear CLR 25 17     60%   25 1008.8 1008.7      
Aug 16 17:53 NW 21 16.09 Clear CLR 28 17     51%   28 1008.5 1008.5      
Aug 16 16:53 NNW 18 16.09 Clear CLR 31 16     39%   31 1008.5 1008.3      
Aug 16 15:53 NNW 18 16.09 Clear CLR 32 14     35%   31 1008.8 1008.6      
Aug 16 14:53 NW 22 16.09 Clear   32 14     35%   31 1009.2 1009.1      
Aug 16 13:53 NNW 24 16.09 Clear CLR 32 17     41%   32 1009.5 1009.4      
Aug 16 12:53   16.09 Clear CLR 33 14     32%   33 1009.5 1009.5      
Aug 16 11:53 Calm 16.09 Clear CLR 33 9     23%   32 1010.2 1010      
Aug 16 10:53 SE 17 16.09 Clear CLR 30 9     28%   29 1010.5 1010.5      
Aug 16 09:53 5 16.09 Clear CLR 27 11     38%   26 1011.2 1011.1      
Aug 16 08:53 SSE 13 16.09 Clear CLR 24 11     45%   24 1011.5 1011.4      
Aug 16 07:53 S 11 16.09 Clear CLR 22 13     59%   21 1011.2 1011.2      
Aug 16 06:53 S 9 16.09 Clear CLR 20 14     68%     1010.8 1010.8      
Aug 16 05:53 Calm 16.09 Clear CLR 19        %     1010.5 1010.3      
Aug 16 04:53 Calm 16.09 Clear CLR 21 12     55%     1010.2 1010      
Aug 16 03:53 S 5 16.09 Clear CLR 22 11     49%   22 1009.8 1009.7      
Aug 16 02:53 S 5 16.09 Clear CLR 23 11     48%   22 1010.2 1009.9      
Aug 16 01:53 SE 13 16.09 Clear CLR 22 11     49%   22 1010.5 1010.4      
Aug 16 00:53 SSE 5 16.09 Clear CLR 24 12     45%   24 1010.8 1010.9      
Aug 15 23:53 SSE 8 16.09 Clear CLR 24 13     48%   24 1011.2 1010.9      
Aug 15 22:53 SSW 8 16.09 Clear CLR 26 14     47%   26 1011.2 1011      
Aug 15 21:53 WSW 8 16.09 Clear CLR 27 13     42%   27 1011.2 1011      
Aug 15 20:53 WNW 13 16.09 Clear CLR 28 14     43%   28 1010.5 1010.5      
Aug 15 19:53 NW 15 16.09 Clear CLR 29 16     43%   29 1010.2 1010      
Aug 15 18:53 NNW 17 16.09 Mostly Clear FEW008 33 13     29%   32 1009.8 1009.7      
Aug 15 17:53 NW 22 16.09 Clear CLR 35 13     26%   34 1009.8 1009.8      
Aug 15 16:53   16.09 Clear CLR 36 12     23%   35 1010.2 1010.1      
Aug 15 15:53 NW 22 16.09 Clear CLR 36 14     27%   36 1010.5 1010.4      
Aug 15 14:53 NNW 17 16.09 Clear CLR 37 11     21%   35 1011.2 1011      
Aug 15 13:53 NNW 17 16.09 Clear CLR 37 11     21%   35 1011.5 1011.4      
Aug 15 12:53 9 16.09 Clear CLR 36 13     26%   35 1012.2 1011.9      
Aug 15 11:53 Calm 16.09 Clear CLR 33 14     32%   32 1012.9 1012.8      
Aug 15 10:53 8 16.09 Clear CLR 31 14     36%   30 1013.6 1013.3      
Aug 15 09:53 NNW 8 16.09 Clear CLR 27 17     53%   28 1013.6 1013.5      
Aug 15 08:53 NW 5 16.09 Clear CLR 26 12     43%   25 1013.9 1013.6      
Aug 15 07:53 Calm 16.09 Clear CLR 23 13     53%   23 1013.6 1013.5      
Aug 15 06:53 Calm 16.09 Clear CLR 20        %     1013.6 1013.3      
Aug 15 05:53 Calm 16.09 Clear CLR 21 16     73%     1013.2 1013.1      
Aug 15 03:53 Calm 16.09 Clear CLR 22 12     53%   22 1013.2 1013      
Aug 15 02:53 S 5 16.09 Clear CLR 23 12     51%   22 1013.2 1013.1      
Aug 15 01:53 SSE 5 16.09 Clear CLR 22 13     57%   21 1013.6 1013.3      
Aug 15 00:53 SSE 5 16.09 Clear CLR 23 12     50%   23 1013.6 1013.5      
Aug 14 23:53 Calm 16.09 Clear CLR 26 12     43%   25 1013.9 1013.8      
Aug 14 22:53 Calm 16.09 Clear CLR 26 12     42%   26 1014.2 1014      
Aug 14 21:53 WSW 9 16.09 Clear CLR 27 13     42%   27 1014.2 1013.9      
Aug 14 20:53 WNW 13 16.09 Clear CLR 28 11     34%   28 1013.6 1013.4      
Aug 14 19:53 NNW 18 16.09 Clear CLR 31 12     31%   29 1012.9 1012.7      
Aug 14 18:53 NNW 22 16.09 Clear CLR 32 13     33%   31 1012.5 1012.3      
Aug 14 17:53 NNW 24 16.09 Clear CLR 33 13     30%   32 1012.2 1012.1      
Aug 14 17:09 NW 24 16.09 Mostly Clear FEW005 34 14     31%   33 1012.2        
Aug 14 16:53 NNW 24 16.09 Clear CLR 35 14     28%   34 1012.2 1012      
Aug 14 15:53 NNW 21 16.09 Clear CLR 36 13     25%   35 1012.5 1012.2      
May 15 09:53 Calm 16.09 Cloudy FEW021 BKN028 OVC035 16 8     62%     1017.6 1017.5      
May 14 23:53 WNW 18 16.09 Mostly Cloudy FEW010 SCT024 BKN045 13 9     77%     1016.3 1016.2      
May 14 15:53 WNW 21 16.09 Mostly Clear FEW025 FEW032 19 11     57%     1014.6 1014.4      
May 14 08:53 Calm 16.09 Cloudy FEW012 BKN019 OVC024 15 9     69%     1015.9 1015.9      
May 13 19:31 NW 22 16.09 Mostly Clear FEW008 17 10     63%     1014.9        
May 13 02:53 SE 18 16.09 Clear CLR 13 9     77%     1014.2 1014.2      
May 12 00:53 E 5 16.09 Clear CLR 17 9     60%     1009.5 1009.2      
Jun 11 20:53 WSW 21 16.09 Clear   14 7     62%     1015.2 1015.2      
Jun 10 18:53   16.09 Partly Cloudy FEW025 SCT037 SCT065 19 7     47%     1013.6 1013.5      
Jun 10 12:53   16.09 Partly Cloudy FEW015 SCT032 SCT050 21 8     45%     1015.2 1014.9      
Notice The following observation data may not be complete
Jun 10 03:34   16.09 Mostly Cloudy BKN023          %              
Jun 09 00:53 NW 8 16.09 Clear   18 16     90%     1014.6 1014.6      
Jun 08 16:53 ESE 13 16.09 Cloudy FEW009 BKN038 OVC075 21 14     66%     1015.6 1015.3     0
Jun 07 14:53   16.09 Mostly Cloudy FEW050 SCT090 BKN130 22 12     53%   21 1013.2 1013      
Jun 07 06:53 Calm 11.27 Mostly Cloudy FEW001 SCT007 BKN010 14 11     81%     1013.6 1013.3      
Jun 06 04:53 NW 8 14.48 Clear CLR 13 11     89%     1013.6 1013.3      
Jun 06 03:53 NNW 9 14.48 Clear CLR 13 11     87%     1013.2 1013.1      
Jun 05 20:53 W 15 16.09 Partly Cloudy FEW002 FEW065 SCT110 18 12     65%     1012.2 1011.9      
Jun 05 12:53 NW 17 16.09 Mostly Clear FEW035 FEW090 26 11     38%   26 1012.2 1012